Barksdale AFB, LA

5:16 AM CST on February 26, 2017 (GMT -0600)
Barksdale Air Force Base

Weather History for KBAD - March, 2013

Change the Weather History Date:

Wednesday, March 6, 2013

  Actual Average Record
Temperature  
Mean Temperature 46 °F -  
Max Temperature 61 °F 61 °F 81 °F (2009)
Min Temperature 32 °F 42 °F 23 °F (2015)
Degree Days  
Heating Degree Days 18    
Moisture  
Dew Point 22 °F    
Average Humidity 41    
Maximum Humidity 71    
Minimum Humidity 17    
Precipitation  
Precipitation 0.00 in - - ()
Sea Level Pressure  
Sea Level Pressure 30.33 in    
Wind  
Wind Speed 6 mph (North)    
Max Wind Speed 13 mph    
Max Gust Speed -    
Visibility 10 miles    
Events      
Averages and records for this station are not official NWS values.
T = Trace of Precipitation, MM = Missing Value Source: NWS Daily Summary

Daily Weather History Graph

Daily Weather History Graph

Search for Another Location

Airport or City:

Trip Planner

Search our weather history database for the weather conditions in past years. The results will help you decide how hot, cold, wet, or windy it might be!

Date:

Astronomy

Mar. 06, 2013 Rise Set
Actual Time 6:35 AM CST 6:16 PM CST
Civil Twilight 6:11 AM CST 6:40 PM CST
Nautical Twilight 5:42 AM CST 7:09 PM CST
Astronomical Twilight 5:14 AM CST 7:37 PM CST
Moon 2:31 AM CST (3/6) 1:12 PM CST (3/6)
Length of Visible Light 12h 29m
Length of Day
11h 40m
Waning Crescent, 29% of the Moon is Illuminated
Mar 6
Waning Crescent
Mar 11
New
Mar 19
First Quarter
Mar 27
Full
Apr 2
Last Quarter

Hourly Weather History & Observations

Time (CST) Temp. Windchill Dew Point Humidity Pressure Visibility Wind Dir Wind Speed Gust Speed Precip Events Conditions
12:58 AM 38.1 °F 33.7 °F 23.4 °F 55% 30.33 in 10.0 mi North 5.8 mph - N/A   Clear
1:58 AM 36.7 °F 32.0 °F 23.2 °F 58% 30.33 in 10.0 mi NNW 5.8 mph - N/A   Clear
2:58 AM 36.1 °F 30.6 °F 23.4 °F 60% 30.33 in 10.0 mi North 6.9 mph - N/A   Clear
3:58 AM 34.9 °F 28.3 °F 23.7 °F 64% 30.34 in 10.0 mi North 8.1 mph - N/A   Clear
4:58 AM 34.0 °F 27.2 °F 23.7 °F 66% 30.37 in 10.0 mi NNW 8.1 mph - N/A   Clear
5:58 AM 32.9 °F 27.5 °F 23.2 °F 67% 30.38 in 10.0 mi North 5.8 mph - N/A   Clear
6:58 AM 32.4 °F 26.9 °F 23.9 °F 71% 30.38 in 10.0 mi North 5.8 mph - N/A   Clear
7:58 AM 38.8 °F 33.2 °F 24.8 °F 57% 30.41 in 10.0 mi North 8.1 mph - N/A   Clear
8:58 AM 43.7 °F 37.3 °F 23.7 °F 45% 30.42 in 10.0 mi North 12.7 mph - N/A   Clear
9:58 AM 47.1 °F - 21.4 °F 36% 30.43 in 10.0 mi NNW 8.1 mph - N/A   Clear
10:58 AM 50.4 °F - 19.4 °F 30% 30.42 in 10.0 mi NW 6.9 mph - N/A   Clear
11:58 AM 53.6 °F - 18.5 °F 25% 30.39 in 10.0 mi Variable 4.6 mph - N/A   Clear
12:58 PM 55.6 °F - 20.7 °F 26% 30.34 in 10.0 mi Variable 2.3 mph - N/A   Clear
1:58 PM 57.7 °F - 21.4 °F 24% 30.31 in 10.0 mi West 6.9 mph - N/A   Clear
2:58 PM 60.1 °F - 20.1 °F 21% 30.29 in 10.0 mi WNW 6.9 mph - N/A   Clear
3:58 PM 61.2 °F - 16.0 °F 17% 30.28 in 10.0 mi WNW 4.6 mph - N/A   Clear
4:58 PM 60.8 °F - 15.1 °F 17% 30.28 in 10.0 mi NNW 9.2 mph - N/A   Clear
5:58 PM 56.7 °F - 20.8 °F 25% 30.27 in 10.0 mi NNE 3.5 mph - N/A   Clear
6:58 PM 51.1 °F - 20.7 °F 30% 30.27 in 10.0 mi ENE 2.3 mph - N/A   Clear
7:58 PM 50.7 °F - 19.0 °F 29% 30.27 in 10.0 mi NE 3.5 mph - N/A   Overcast
8:58 PM 47.8 °F - 20.8 °F 34% 30.28 in 10.0 mi NE 1.2 mph - N/A   Mostly Cloudy
9:58 PM 48.4 °F - 23.5 °F 38% 30.28 in 10.0 mi ENE 2.3 mph - N/A   Overcast
10:58 PM 48.2 °F - 25.0 °F 40% 30.29 in 10.0 mi ESE 3.5 mph - N/A   Overcast
11:58 PM 46.9 °F - 27.7 °F 47% 30.27 in 10.0 mi SE 6.9 mph - N/A   Overcast